Stratford, CT

12:47 PM EDT on August 31, 2016 (GMT -0400)
Sikorsky Memorial

Weather History for KBDR - May, 2014

Change the Weather History Date:

Thursday, May 1, 2014

  Actual Average Record
Temperature  
Mean Temperature 59 °F 54 °F  
Max Temperature 69 °F 63 °F 83 °F (1957)
Min Temperature 48 °F 46 °F 36 °F (2008)
Degree Days  
Heating Degree Days 6 11  
Month to date heating degree days 6 11  
Since 1 July heating degree days 5486 5166  
Cooling Degree Days 0 0  
Month to date cooling degree days 0 0  
Year to date cooling degree days 0 2  
Growing Degree Days 7 (Base 50)    
Moisture  
Dew Point 55 °F    
Average Humidity 87    
Maximum Humidity 100    
Minimum Humidity 73    
Precipitation  
Precipitation 1.49 in 0.11 in 1.49 in (2014)
Month to date precipitation 1.49 0.11  
Year to date precipitation 19.15 14.18  
Snow  
Snow 0.00 in 0.00 in 0.00 in (2002)
Month to date snowfall 0.0 0.0  
Since 1 July snowfall 57.4 27.6  
Snow Depth 0.00 in    
Sea Level Pressure  
Sea Level Pressure 29.82 in    
Wind  
Wind Speed 7 mph (SW)    
Max Wind Speed 21 mph    
Max Gust Speed 28 mph    
Visibility 4 miles    
Events Fog , Rain    
T = Trace of Precipitation, MM = Missing Value Source: NWS Daily Summary

Daily Weather History Graph

Daily Weather History Graph

Search for Another Location

Airport or City:

Trip Planner

Search our weather history database for the weather conditions in past years. The results will help you decide how hot, cold, wet, or windy it might be!

Date:

Astronomy

May. 01, 2014 Rise Set
Actual Time 5:50 AM EDT 7:49 PM EDT
Civil Twilight 5:20 AM EDT 8:19 PM EDT
Nautical Twilight 4:43 AM EDT 8:56 PM EDT
Astronomical Twilight 4:04 AM EDT 9:36 PM EDT
Moon 7:35 AM EDT (5/1) 10:20 PM EDT (5/1)
Length of Visible Light 14h 59m
Length of Day
13h 59m
Waxing Crescent, 6% of the Moon is Illuminated
May 1
Waxing Crescent
May 6
First Quarter
May 14
Full
May 21
Last Quarter
May 28
New

Hourly Weather History & Observations

Time (EDT) Temp. Dew Point Humidity Pressure Visibility Wind Dir Wind Speed Gust Speed Precip Events Conditions
12:20 AM 46.9 °F 46.0 °F 97% 30.01 in 1.5 mi ENE 16.1 mph - 0.24 in Rain Heavy Rain
12:32 AM 46.9 °F 46.0 °F 97% 30.00 in 2.5 mi ENE 16.1 mph - 0.34 in Rain Rain
12:52 AM 46.9 °F 46.9 °F 100% 30.01 in 3.0 mi NNW 10.4 mph - 0.42 in Rain Rain
1:22 AM 48.9 °F 48.0 °F 97% 29.97 in 4.0 mi ENE 17.3 mph - 0.11 in Rain Rain
1:40 AM 50.0 °F 48.9 °F 96% 29.97 in 2.5 mi NNE 8.1 mph 21.9 mph 0.21 in Rain Heavy Rain
1:50 AM 50.0 °F 50.0 °F 100% 29.96 in 1.5 mi NNE 12.7 mph - 0.34 in Rain Heavy Rain
1:52 AM 51.1 °F 50.0 °F 96% 29.96 in 1.8 mi NNE 10.4 mph - 0.36 in Rain Heavy Rain
2:00 AM 51.1 °F 51.1 °F 100% 29.95 in 2.5 mi NNW 8.1 mph 17.3 mph 0.07 in Rain Heavy Rain
2:03 AM 51.1 °F 51.1 °F 100% 29.95 in 3.0 mi NNE 9.2 mph - 0.08 in Rain Rain
2:52 AM 53.1 °F 52.0 °F 96% 29.91 in 2.0 mi NNE 8.1 mph - 0.29 in Rain Heavy Rain
2:59 AM 54.0 °F 53.1 °F 97% 29.91 in 1.5 mi NE 5.8 mph - 0.12 in Rain Heavy Rain
3:29 AM 57.0 °F 57.0 °F 100% 29.89 in 3.0 mi West 4.6 mph - 0.55 in Rain Light Rain
3:32 AM 57.0 °F 57.0 °F 100% 29.89 in 1.8 mi Variable 5.8 mph - 0.56 in Rain Rain
3:52 AM 57.0 °F 55.9 °F 96% 29.88 in 2.5 mi WSW 5.8 mph 17.3 mph 0.70 in Rain Rain
4:05 AM 57.0 °F 55.9 °F 96% 29.87 in 4.0 mi SW 6.9 mph - 0.03 in Rain Light Rain
4:45 AM 55.0 °F 55.0 °F 100% 29.86 in 4.0 mi SW 5.8 mph - 0.04 in Rain Light Rain
4:52 AM 54.0 °F 54.0 °F 100% 29.86 in 5.0 mi SW 6.9 mph - 0.05 in Rain Light Rain
5:17 AM 54.0 °F 53.1 °F 97% 29.85 in 2.5 mi SW 5.8 mph - 0.00 in   Overcast
5:38 AM 55.0 °F 54.0 °F 96% 29.84 in 4.0 mi SSW 9.2 mph - 0.00 in Rain Light Rain
5:52 AM 55.0 °F 54.0 °F 96% 29.84 in 4.0 mi SSW 8.1 mph - 0.01 in Rain Rain
6:02 AM 54.0 °F 54.0 °F 100% 29.84 in 2.5 mi SSW 9.2 mph - 0.05 in Rain Rain
6:11 AM 54.0 °F 54.0 °F 100% 29.84 in 7.0 mi SW 8.1 mph - 0.08 in Rain Light Rain
6:25 AM 54.0 °F 54.0 °F 100% 29.84 in 3.0 mi SW 6.9 mph - 0.08 in   Overcast
6:32 AM 54.0 °F 54.0 °F 100% 29.84 in 1.8 mi SW 5.8 mph - 0.08 in   Overcast
6:52 AM 54.0 °F 53.1 °F 97% 29.84 in 0.5 mi SW 8.1 mph - 0.08 in Fog Fog
7:52 AM 54.0 °F 53.1 °F 97% 29.82 in 0.2 mi SW 5.8 mph - N/A Fog Fog
8:52 AM 54.0 °F 54.0 °F 100% 29.81 in 0.2 mi SSW 5.8 mph - N/A Fog Fog
9:52 AM 54.0 °F 54.0 °F 100% 29.79 in 0.2 mi SW 3.5 mph - 0.00 in Fog Fog
10:52 AM 55.9 °F 55.0 °F 97% 29.80 in 0.2 mi SSW 5.8 mph - 0.00 in Fog Fog
11:52 AM 55.9 °F 55.9 °F 100% 29.78 in 0.2 mi SSW 5.8 mph - N/A Fog Fog
12:52 PM 59.0 °F 59.0 °F 100% 29.77 in 0.5 mi SSW 6.9 mph - N/A Fog Fog
1:16 PM 60.1 °F 59.0 °F 96% 29.76 in 0.8 mi SSW 8.1 mph - N/A   Mist
1:22 PM 60.1 °F 59.0 °F 96% 29.76 in 2.0 mi SSW 6.9 mph - N/A   Overcast
1:31 PM 60.1 °F 59.0 °F 96% 29.75 in 3.0 mi SSW 6.9 mph - N/A   Overcast
1:42 PM 60.1 °F 59.0 °F 96% 29.75 in 1.8 mi South 8.1 mph - N/A   Overcast
1:52 PM 60.8 °F 59.0 °F 94% 29.75 in 1.2 mi South 9.2 mph - N/A   Overcast
2:09 PM 60.1 °F 59.0 °F 96% 29.75 in 3.0 mi South 8.1 mph - N/A   Overcast
2:29 PM 64.0 °F 60.1 °F 87% 29.74 in 6.0 mi SSW 6.9 mph - N/A   Scattered Clouds
2:52 PM 66.0 °F 60.1 °F 81% 29.73 in 8.0 mi SW 6.9 mph - N/A   Clear
3:52 PM 64.9 °F 60.1 °F 84% 29.72 in 10.0 mi SSE 9.2 mph - N/A   Clear
4:52 PM 60.1 °F 55.0 °F 83% 29.71 in 10.0 mi ENE 5.8 mph - N/A   Clear
5:52 PM 66.0 °F 57.9 °F 75% 29.69 in 10.0 mi South 11.5 mph 17.3 mph N/A   Clear
6:52 PM 64.0 °F 57.9 °F 80% 29.68 in 10.0 mi South 12.7 mph - N/A   Clear
7:52 PM 61.0 °F 57.0 °F 87% 29.69 in 10.0 mi West 6.9 mph - N/A   Clear
8:52 PM 61.0 °F 55.9 °F 83% 29.70 in 10.0 mi SW 6.9 mph - N/A   Clear
9:52 PM 59.0 °F 55.0 °F 87% 29.69 in 10.0 mi SSW 5.8 mph - N/A   Clear
10:52 PM 55.9 °F 54.0 °F 93% 29.69 in 10.0 mi Variable 3.5 mph - N/A   Mostly Cloudy
11:52 PM 60.1 °F 57.9 °F 93% 29.70 in 10.0 mi West 3.5 mph - 0.02 in   Overcast